TimeEST,TemperatureF,Dew PointF,Humidity,Sea Level PressureIn,VisibilityMPH,Wind Direction,Wind SpeedMPH,Gust SpeedMPH,PrecipitationIn,Events,Conditions,WindDirDegrees,DateUTC
12:21 AM,32.0,28.4,87,29.23,2.5,SSW,31.1,40.3,0.00,Snow,Light Snow,200,2012-12-21 05:21:00
12:29 AM,32.0,28.4,87,29.23,2.0,SSW,25.3,39.1,0.00,Snow,Light Snow,200,2012-12-21 05:29:00
12:45 AM,32.0,30.2,93,29.23,1.5,SSW,25.3,36.8,0.00,Snow,Light Snow,200,2012-12-21 05:45:00
12:53 AM,32.0,30.0,92,29.23,1.2,SSW,27.6,38.0,0.00,Snow,Light Snow,210,2012-12-21 05:53:00
1:25 AM,32.0,30.2,93,29.23,3.0,SSW,24.2,35.7,0.00,Snow,Light Snow,210,2012-12-21 06:25:00
1:32 AM,33.8,30.2,87,29.23,1.8,SSW,24.2,33.4,0.00,Snow,Light Snow,210,2012-12-21 06:32:00
1:41 AM,32.0,30.2,93,29.23,1.0,SW,19.6,-,0.01,Snow,Light Snow,220,2012-12-21 06:41:00
1:53 AM,33.1,30.9,92,29.24,1.2,SW,23.0,31.1,0.01,Snow,Light Snow,220,2012-12-21 06:53:00
2:16 AM,33.8,30.2,87,29.24,2.0,SW,23.0,33.4,0.00,Snow,Light Snow,230,2012-12-21 07:16:00
2:28 AM,33.8,30.2,87,29.24,1.8,SW,21.9,34.5,0.00,Snow,Light Snow,220,2012-12-21 07:28:00
2:53 AM,33.1,30.9,92,29.24,2.0,SW,23.0,33.4,0.00,Snow,Light Snow,230,2012-12-21 07:53:00
3:32 AM,33.8,30.2,87,29.24,1.8,SW,23.0,33.4,0.00,Snow,Light Snow,230,2012-12-21 08:32:00
3:53 AM,33.1,30.0,89,29.24,1.8,SW,21.9,33.4,0.00,Snow,Light Snow,230,2012-12-21 08:53:00
4:02 AM,33.8,30.2,87,29.24,2.5,SW,19.6,34.5,0.00,Snow,Light Snow,230,2012-12-21 09:02:00
4:09 AM,33.8,30.2,87,29.24,4.0,SW,24.2,34.5,0.00,Snow,Light Snow,230,2012-12-21 09:09:00
4:28 AM,33.8,30.2,87,29.24,1.8,SW,19.6,34.5,0.00,Snow,Light Snow,230,2012-12-21 09:28:00
4:39 AM,32.0,30.2,93,29.24,1.0,SW,24.2,32.2,0.00,Snow,Light Snow,230,2012-12-21 09:39:00
4:44 AM,32.0,30.2,93,29.24,0.8,WSW,21.9,32.2,0.00,Snow,Light Snow,240,2012-12-21 09:44:00
4:53 AM,32.0,30.9,96,29.24,0.8,WSW,24.2,33.4,0.01,Snow,Light Snow,240,2012-12-21 09:53:00
5:04 AM,32.0,30.2,93,29.24,1.2,WSW,26.5,34.5,0.00,Snow,Light Snow,240,2012-12-21 10:04:00
5:16 AM,33.8,30.2,87,29.25,2.5,WSW,27.6,34.5,0.00,,Overcast,250,2012-12-21 10:16:00
5:25 AM,33.8,30.2,87,29.25,4.0,West,24.2,34.5,0.00,,Overcast,260,2012-12-21 10:25:00
5:53 AM,34.0,32.0,92,29.27,10.0,West,18.4,32.2,0.00,,Overcast,270,2012-12-21 10:53:00
6:04 AM,33.8,33.8,100,29.28,9.0,West,17.3,24.2,0.00,Rain,Light Rain,280,2012-12-21 11:04:00
6:25 AM,33.8,32.0,93,29.29,4.0,West,23.0,29.9,0.01,Snow,Light Snow,280,2012-12-21 11:25:00
6:43 AM,33.8,32.0,93,29.31,8.0,West,20.7,28.8,0.01,Snow,Light Snow,280,2012-12-21 11:43:00
6:53 AM,34.0,30.9,89,29.32,8.0,West,23.0,33.4,0.01,Snow,Light Snow,280,2012-12-21 11:53:00
7:12 AM,33.8,30.2,87,29.33,2.5,West,24.2,34.5,0.00,Snow,Light Snow,270,2012-12-21 12:12:00
7:29 AM,33.8,30.2,87,29.35,1.5,West,21.9,29.9,0.01,Snow,Light Snow,280,2012-12-21 12:29:00
7:39 AM,33.8,30.2,87,29.35,3.0,WNW,20.7,32.2,0.01,Snow,Light Snow,290,2012-12-21 12:39:00
7:46 AM,33.8,30.2,87,29.36,3.0,WNW,21.9,29.9,0.01,Snow,Light Snow,290,2012-12-21 12:46:00
7:49 AM,33.8,30.2,87,29.36,3.0,West,21.9,29.9,0.01,Snow,Light Snow,280,2012-12-21 12:49:00
7:53 AM,33.1,30.9,92,29.37,3.0,West,20.7,31.1,0.01,Snow,Light Snow,280,2012-12-21 12:53:00
7:56 AM,33.8,30.2,87,29.37,2.5,West,21.9,31.1,0.00,Snow,Light Snow,280,2012-12-21 12:56:00
8:03 AM,33.8,30.2,87,29.37,2.0,WNW,20.7,31.1,0.00,Snow,Light Snow,290,2012-12-21 13:03:00
8:12 AM,33.8,30.2,87,29.38,4.0,WNW,23.0,33.4,0.00,Snow,Light Snow,290,2012-12-21 13:12:00
8:53 AM,34.0,28.9,82,29.41,10.0,WNW,18.4,26.5,0.00,,Overcast,290,2012-12-21 13:53:00
9:53 AM,34.0,28.9,82,29.44,10.0,WNW,20.7,32.2,N/A,,Overcast,290,2012-12-21 14:53:00
10:53 AM,34.0,26.1,73,29.48,9.0,WNW,23.0,41.4,0.00,,Overcast,300,2012-12-21 15:53:00
11:53 AM,33.1,28.0,82,29.51,4.0,WNW,24.2,38.0,0.00,Snow,Light Snow,300,2012-12-21 16:53:00
12:53 PM,34.0,28.0,79,29.53,8.0,WNW,25.3,33.4,0.00,Snow,Light Snow,300,2012-12-21 17:53:00
1:18 PM,33.8,26.6,75,29.53,7.0,NW,27.6,38.0,0.00,Snow,Light Snow,310,2012-12-21 18:18:00
1:27 PM,33.8,26.6,75,29.53,9.0,NW,25.3,40.3,0.00,,Overcast,310,2012-12-21 18:27:00
1:53 PM,34.0,27.0,75,29.56,8.0,NW,28.8,40.3,0.00,Snow,Light Snow,310,2012-12-21 18:53:00
2:53 PM,34.0,28.0,79,29.60,10.0,WNW,24.2,32.2,0.00,,Overcast,290,2012-12-21 19:53:00
3:08 PM,33.8,28.4,81,29.60,10.0,WNW,18.4,27.6,N/A,,Overcast,300,2012-12-21 20:08:00
3:37 PM,33.8,28.4,81,29.62,9.0,WNW,21.9,28.8,0.00,,Overcast,300,2012-12-21 20:37:00
3:53 PM,34.0,27.0,75,29.64,10.0,WNW,20.7,32.2,0.00,,Overcast,300,2012-12-21 20:53:00
4:10 PM,33.8,26.6,75,29.64,8.0,WNW,19.6,32.2,N/A,,Overcast,300,2012-12-21 21:10:00
4:14 PM,33.8,28.4,81,29.65,2.5,WNW,25.3,34.5,0.00,Snow,Light Snow,300,2012-12-21 21:14:00
4:17 PM,33.8,28.4,81,29.65,1.5,WNW,23.0,34.5,0.00,Snow,Light Snow,300,2012-12-21 21:17:00
4:39 PM,33.8,28.4,81,29.67,2.0,WNW,23.0,34.5,0.00,Snow,Light Snow,300,2012-12-21 21:39:00
4:53 PM,33.1,28.9,85,29.69,2.5,WNW,16.1,25.3,0.00,Snow,Light Snow,290,2012-12-21 21:53:00
5:07 PM,33.8,28.4,81,29.69,3.0,WNW,17.3,25.3,0.00,Snow,Light Snow,300,2012-12-21 22:07:00
5:45 PM,33.8,28.4,81,29.71,5.0,WNW,21.9,28.8,0.00,Snow,Light Snow,300,2012-12-21 22:45:00
5:53 PM,34.0,28.0,79,29.73,9.0,WNW,19.6,28.8,0.00,Snow,Light Snow,300,2012-12-21 22:53:00
6:36 PM,33.8,26.6,75,29.74,10.0,WNW,18.4,31.1,0.00,,Overcast,300,2012-12-21 23:36:00
6:53 PM,34.0,27.0,75,29.76,10.0,WNW,25.3,35.7,0.00,,Overcast,300,2012-12-21 23:53:00
7:53 PM,34.0,27.0,75,29.80,10.0,WNW,24.2,33.4,N/A,,Overcast,300,2012-12-22 00:53:00
8:53 PM,34.0,26.1,73,29.83,10.0,NW,24.2,39.1,N/A,,Overcast,310,2012-12-22 01:53:00
9:53 PM,34.0,26.1,73,29.86,10.0,WNW,18.4,28.8,N/A,,Overcast,300,2012-12-22 02:53:00
10:53 PM,34.0,25.0,70,29.89,10.0,WNW,21.9,31.1,N/A,,Overcast,300,2012-12-22 03:53:00
11:53 PM,33.1,25.0,72,29.92,10.0,NW,18.4,27.6,N/A,,Overcast,310,2012-12-22 04:53:00